GFSMA_prec_cthk_105.txt.gz
RH
31 29 28 31 32 32 34 37 43 46 50 55 60 67 83 85 84 82 84 90 94 95 93 98 91 86 83 74 65 51 42 40 30 24 26 25 21 12 10 10 10 10 9
34 30 29 33 33 32 34 36 39 46 51 58 62 74 84 84 86 88 89 93 91 98 95 98 97 91 90 81 69 56 42 37 32 25 26 28 22 12 10 10 10 10 10
36 34 37 34 33 33 36 39 38 44 50 53 61 74 83 85 87 90 93 90 91 93 97 98 98 95 92 86 72 52 36 36 30 25 24 23 23 15 13 12 12 13 13
38 39 42 37 34 33 37 39 35 41 48 55 60 69 85 87 93 95 91 90 94 97 95 94 94 93 94 84 71 53 32 37 31 29 24 23 24 21 16 14 13 13 14
43 42 44 40 36 34 38 41 35 37 44 48 54 68 78 87 93 95 90 91 96 94 93 99 90 94 85 76 74 57 38 34 31 34 27 26 25 26 18 15 15 16 18
50 50 45 41 40 36 39 43 38 35 41 49 50 57 70 86 89 94 95 91 92 93 97 99 96 93 78 71 65 53 37 33 35 35 32 33 30 25 20 17 16 19 23
58 53 47 46 42 38 41 43 43 37 39 48 55 58 64 79 88 95 91 92 92 93 92 94 99 97 83 69 54 43 40 38 35 38 34 35 33 27 22 21 21 24 28
62 63 50 46 44 42 45 46 45 45 39 45 50 54 58 61 74 88 92 92 92 92 94 94 97 97 87 75 57 41 35 35 34 36 33 35 36 28 24 24 26 29 33
53 70 61 48 47 49 48 49 47 51 43 44 48 49 55 57 56 70 81 89 88 80 84 92 96 99 89 79 62 40 34 31 31 35 36 38 40 35 32 31 33 35 35
49 60 71 60 52 56 53 53 50 54 52 44 48 47 51 53 56 56 63 61 76 67 71 87 97 96 92 85 65 41 32 31 30 38 39 40 44 43 36 35 35 37 38
47 57 69 74 68 61 58 57 52 53 58 45 48 50 49 53 58 58 60 61 58 57 64 90 97 98 95 87 72 49 35 32 32 41 40 43 44 47 40 32 31 35 40
48 53 63 61 81 72 68 59 54 54 61 47 46 50 52 61 65 69 75 77 68 58 60 88 99 99 96 90 75 49 42 36 34 36 46 47 46 45 43 38 35 38 47
41 48 61 58 70 71 69 61 54 54 63 50 46 54 58 68 79 79 79 77 78 71 65 76 96 98 96 91 78 54 47 41 41 45 43 51 49 46 45 41 44 49 53
33 43 60 65 73 72 67 61 54 53 64 48 46 54 58 62 74 77 82 82 83 83 74 69 86 96 95 89 80 62 53 54 43 47 47 43 49 47 43 42 46 51 57
46 50 66 71 79 72 68 64 55 55 60 45 50 54 56 59 65 71 78 83 88 86 85 74 85 95 95 94 88 72 61 58 50 46 54 47 50 58 55 50 52 58 63
54 60 67 75 77 74 70 62 56 59 60 47 54 55 57 59 60 65 74 81 88 89 87 79 80 97 97 96 93 82 69 68 66 65 62 62 59 62 67 62 59 60 67
59 59 72 79 77 76 75 65 59 57 57 52 53 56 58 59 60 65 69 73 85 93 92 80 87 96 98 97 94 88 84 79 75 73 70 70 68 65 70 69 68 76 82
66 69 74 79 78 83 78 68 59 59 54 50 54 56 57 59 65 70 84 83 83 87 91 86 91 98 98 95 89 85 84 79 81 81 76 79 78 80 80 82 84 85 86
74 72 80 86 82 81 79 70 66 62 57 54 54 55 58 65 69 76 87 93 96 93 95 94 96 97 95 94 93 92 91 90 90 88 87 84 84 88 90 88 87 88 91
83 80 82 86 78 83 81 76 72 61 59 55 55 56 60 64 69 76 86 92 97 94 98 96 97 97 95 94 97 94 96 94 94 94 93 91 90 92 92 91 95 96 97
94 92 92 87 79 91 85 80 71 64 59 57 57 58 59 65 69 76 89 96 98 97 98 97 97 98 97 98 97 95 97 97 95 97 98 95 96 96 97 95 96 94 96
96 98 97 89 92 93 89 80 74 67 65 60 61 59 57 61 67 72 83 98 98 99 99 97 99 98 98 98 97 95 96 96 94 94 96 96 97 97 99 99 99 99 98
99 98 98 95 97 93 87 82 79 72 68 63 64 64 61 61 63 69 82 96 98 99 99 99 99 99 99 98 97 98 98 98 98 99 99 99 99 98 98 98 99 98 98
98 99 97 97 96 91 89 85 84 82 75 68 67 70 66 65 66 66 75 87 94 98 99 98 98 98 99 98 97 98 98 99 99 99 99 97 98 98 98 98 99 99 99
98 98 99 96 98 95 93 89 89 90 87 84 78 70 72 71 72 71 71 76 87 91 97 98 98 98 96 97 97 98 98 98 99 98 99 99 98 98 99 99 97 93 90
98 98 93 99 92 95 94 93 93 91 89 89 87 85 80 81 83 82 77 79 79 88 93 94 97 93 95 98 98 98 98 98 98 98 98 98 98 96 93 92 91 90 91

GFSMA_prec_cthk_108.txt.gz
RH
36 40 44 44 42 41 40 37 38 39 44 50 59 59 66 67 77 80 79 88 80 84 89 98 98 94 87 76 76 67 54 42 40 34 26 26 26 24 18 10 10 10 9
37 34 41 40 40 42 41 41 38 39 41 50 57 59 62 71 72 84 79 79 80 82 87 97 99 98 93 88 86 71 61 44 42 35 25 22 26 25 21 10 11 10 9
47 37 36 37 40 44 44 39 40 39 38 47 49 55 60 69 71 80 80 82 89 85 88 92 99 85 94 90 85 73 62 48 41 36 26 22 24 24 18 12 12 10 9
50 43 38 37 40 45 45 36 37 38 34 37 44 52 57 65 74 80 81 84 90 90 89 88 96 96 96 96 92 80 63 46 35 37 25 24 22 22 22 16 15 12 12
50 52 45 41 40 43 46 39 35 38 33 33 39 47 56 64 73 76 87 87 91 93 98 95 90 97 98 98 96 85 64 47 33 34 26 23 23 24 23 21 19 15 12
52 57 54 47 44 45 47 43 36 38 37 34 38 44 53 56 64 82 84 86 94 93 97 99 97 96 98 98 93 84 71 53 35 32 26 27 22 26 22 25 23 16 15
50 55 65 57 49 49 50 48 39 39 41 39 37 43 50 55 63 75 80 86 91 90 94 95 95 98 95 97 94 84 79 58 39 28 28 33 28 30 26 23 21 19 19
51 54 61 65 56 51 51 52 41 41 42 43 40 42 47 48 53 62 67 84 89 90 93 93 93 94 99 97 90 79 76 53 39 32 33 37 36 29 23 25 24 22 24
46 51 55 62 63 54 51 51 45 43 43 45 45 41 48 47 50 49 55 66 83 86 88 91 85 92 96 98 95 77 66 48 38 35 33 36 36 30 23 24 25 27 29
40 47 52 55 65 62 55 52 49 52 48 45 50 46 43 46 48 50 49 50 62 75 78 91 80 82 92 98 98 88 72 51 37 34 30 32 35 33 30 29 34 35 36
36 42 48 55 58 69 66 56 52 58 57 48 48 52 44 43 47 55 53 52 53 59 62 73 70 67 80 92 98 91 80 59 41 33 34 33 33 34 36 36 35 37 35
40 43 48 53 53 67 77 68 60 62 61 52 51 57 46 39 48 50 57 58 63 63 64 56 56 58 76 92 95 94 86 65 49 36 37 39 39 41 40 42 37 36 35
41 43 47 47 53 62 76 83 78 68 66 58 50 55 53 42 46 52 63 72 69 71 70 69 68 62 75 97 99 97 90 74 53 47 44 44 44 38 44 46 45 44 44
41 44 47 48 50 60 73 74 83 79 72 61 52 54 57 39 49 53 58 71 74 79 75 72 71 69 67 90 98 98 95 82 59 51 50 50 44 46 45 47 51 48 46
49 47 49 52 56 62 67 72 83 84 70 64 55 58 59 43 48 52 56 62 68 76 77 76 77 79 72 72 94 97 92 83 65 55 54 53 48 47 51 52 53 56 56
61 52 52 58 60 66 71 78 88 81 82 65 59 60 55 51 50 52 55 61 66 66 69 73 78 84 79 72 89 94 92 93 78 65 61 58 55 45 42 49 50 51 55
62 58 60 63 61 56 77 87 89 83 82 70 62 60 55 51 51 52 55 59 63 66 68 64 86 86 85 82 89 94 94 92 87 83 72 62 60 60 52 52 62 60 61
58 61 63 68 66 62 75 88 87 86 82 70 61 59 61 50 51 54 55 61 60 65 78 73 74 87 90 87 84 94 97 97 93 87 76 75 71 68 63 67 66 70 67
67 65 66 71 71 64 76 85 90 87 79 68 62 61 59 55 50 52 55 57 68 74 85 88 87 87 88 87 88 97 95 97 93 90 89 85 84 77 72 76 72 74 77
79 76 77 77 76 75 85 92 86 80 78 71 64 59 57 54 49 51 56 60 68 79 85 90 91 94 96 96 92 96 98 98 97 97 95 90 85 85 86 84 84 86 85
93 96 92 89 86 85 88 91 86 80 79 77 68 61 60 55 51 53 56 59 68 74 86 98 96 97 93 99 91 97 98 97 99 98 97 98 97 97 98 93 95 92 95
94 98 95 94 92 89 92 90 86 80 83 78 68 64 63 61 54 55 56 62 68 75 88 99 98 98 97 98 97 97 97 97 98 97 97 98 98 98 98 97 96 97 98
97 95 95 95 95 94 93 93 88 81 85 81 71 68 67 59 57 60 60 61 67 74 89 99 99 99 99 99 97 95 96 98 96 98 99 98 98 98 98 98 98 99 99
99 99 98 99 99 99 99 95 91 89 89 81 74 71 72 65 65 67 67 65 69 74 80 94 98 98 99 98 99 98 99 98 98 98 98 98 98 98 98 98 99 99 99
99 99 98 99 99 98 99 98 94 92 91 84 78 78 79 72 71 72 72 73 71 75 78 83 93 98 98 98 98 98 98 98 98 98 98 98 98 99 98 98 98 99 99
98 99 96 99 98 98 97 97 98 95 91 90 87 88 87 82 82 79 78 79 80 80 78 82 89 95 97 98 98 99 98 98 99 98 98 98 98 98 98 98 98 98 98

GFSMA_prec_cthk_114.txt.gz
RH
38 40 43 46 42 39 34 34 37 40 40 40 45 48 46 49 56 66 73 76 77 80 85 83 78 77 83 88 94 98 89 74 71 65 61 51 35 28 21 19 20 19 12
41 44 45 48 48 49 45 38 36 38 43 44 46 51 51 56 57 60 60 65 68 71 73 77 85 75 78 87 93 97 93 82 72 68 56 48 35 29 25 25 26 22 13
45 47 49 51 52 54 52 47 42 47 42 43 47 44 45 50 50 55 59 56 60 69 71 80 72 71 75 84 86 85 95 84 76 69 56 47 36 30 26 28 27 24 18
48 50 51 51 51 56 54 52 49 46 46 46 46 46 40 43 44 46 49 53 52 65 66 73 77 72 82 84 85 89 92 95 77 70 64 49 39 30 25 27 28 26 19
55 58 52 51 51 52 57 50 52 49 50 50 48 48 42 42 39 39 43 48 50 63 69 71 72 77 85 87 86 88 92 97 84 75 73 60 43 35 24 24 25 24 21
64 66 61 54 55 54 51 54 54 55 53 50 51 51 46 43 40 37 40 44 52 63 69 74 77 81 83 87 88 87 95 96 87 80 77 64 42 39 25 22 22 21 22
69 67 68 63 54 55 52 57 57 59 58 55 55 56 55 45 43 41 36 39 43 48 67 66 79 85 83 88 90 92 93 96 96 90 82 57 37 38 27 22 21 22 22
79 73 70 67 62 57 54 54 59 59 59 61 59 57 59 50 43 41 41 37 38 39 45 63 67 83 86 88 93 97 97 97 98 96 86 60 38 30 25 23 23 22 23
74 70 79 72 76 64 62 53 58 58 60 62 65 60 59 51 44 44 42 40 36 36 40 48 63 81 78 84 91 95 95 96 98 97 83 67 44 31 22 25 26 28 25
54 54 69 63 63 55 63 63 59 56 62 67 68 62 57 54 47 49 48 49 43 38 38 41 48 68 73 79 90 94 95 97 98 98 90 75 50 33 27 28 29 29 24
47 53 46 48 60 53 50 54 63 62 58 62 67 66 61 61 53 51 53 53 53 41 38 43 41 50 70 68 85 87 89 91 92 97 94 83 61 39 30 27 28 32 27
33 41 53 51 49 49 55 55 53 58 61 59 64 72 63 61 59 60 56 54 56 49 39 41 45 50 56 64 62 74 75 87 90 94 95 87 75 52 35 30 30 33 30
26 34 47 65 43 39 43 53 51 53 58 61 60 66 72 66 66 65 61 55 58 57 42 42 48 56 63 64 64 59 64 70 77 81 94 93 83 63 40 34 32 37 36
24 28 44 41 95 43 42 49 61 54 53 62 64 65 75 75 71 68 62 58 60 62 50 38 48 53 62 66 67 65 64 64 69 77 83 96 93 75 55 42 39 38 42
24 29 39 48 43 55 45 43 46 57 59 61 72 71 71 68 85 84 70 64 62 58 54 41 45 49 58 61 69 72 69 66 67 70 87 95 96 90 70 60 49 40 37
38 33 36 48 46 46 51 43 45 58 67 68 71 75 75 73 89 92 82 69 62 59 56 42 46 47 54 58 61 63 65 73 76 76 78 95 99 96 90 73 63 55 49
53 40 38 46 50 56 55 51 48 60 71 72 74 74 72 66 81 96 83 76 68 62 59 47 50 56 56 61 62 64 65 69 76 82 79 80 94 96 92 82 70 63 63
62 47 45 51 55 65 65 59 53 65 70 79 77 80 75 88 92 84 86 81 68 64 63 49 53 61 62 59 64 66 67 70 71 80 82 82 83 94 92 92 80 81 74
76 75 72 73 68 70 86 58 54 64 62 67 71 71 76 77 78 82 90 86 71 66 63 55 55 59 60 62 64 70 73 77 71 72 85 90 86 86 91 96 91 82 72
86 87 81 85 92 83 78 62 61 65 68 71 77 79 79 75 78 85 91 87 72 67 62 60 56 57 56 62 67 71 80 83 83 88 86 90 92 89 92 92 98 95 88
95 97 88 97 92 94 88 61 66 67 68 78 81 80 73 73 82 90 91 80 71 65 61 61 59 56 57 62 67 70 77 82 85 88 93 92 95 91 90 92 95 97 97
98 93 91 96 92 84 80 73 74 77 77 79 81 79 77 74 79 81 85 81 78 62 61 62 61 59 59 62 68 72 76 92 92 98 99 96 97 97 93 93 97 99 96
98 95 99 97 95 90 83 81 85 83 84 88 90 92 90 81 83 88 87 81 75 66 64 66 63 62 63 69 67 73 79 98 98 99 99 98 99 99 96 98 98 99 97
98 99 98 98 96 95 94 93 90 91 91 93 92 99 96 94 91 92 89 86 85 73 69 68 68 66 67 71 70 74 80 97 99 99 99 98 97 96 97 98 98 98 97
98 98 99 98 97 98 98 98 97 98 97 97 98 95 97 96 98 96 93 88 87 79 72 72 73 73 71 74 73 70 77 90 99 98 97 97 98 99 98 98 98 98 99
97 98 96 96 98 98 99 98 96 98 98 96 98 97 99 98 99 99 97 94 92 82 77 76 80 77 77 78 77 76 77 86 94 97 98 99 98 99 99 99 98 98 98

GFSMA_prec_cthk_117.txt.gz
RH
33 33 33 35 35 35 37 37 35 33 32 32 34 34 35 43 49 49 54 65 74 64 66 64 64 75 73 77 80 82 84 95 91 78 65 62 61 45 29 23 17 16 16
39 37 38 37 38 39 40 43 39 38 36 33 35 36 38 43 49 54 54 63 59 62 58 55 62 65 70 74 74 79 87 91 98 84 72 64 60 48 32 24 21 20 18
45 44 44 43 40 42 44 48 49 47 43 41 40 40 42 43 43 46 47 52 56 58 51 54 61 63 66 70 70 76 84 84 99 92 76 71 57 47 32 26 24 26 22
52 47 48 48 49 47 48 51 53 50 48 45 42 44 42 44 41 41 40 38 42 47 47 53 62 65 65 66 68 80 83 85 89 98 82 71 58 48 33 28 26 28 24
59 52 52 51 54 54 49 50 54 54 51 48 45 48 49 46 45 41 37 33 31 38 44 51 64 67 68 71 72 79 86 85 86 98 89 70 63 53 37 31 25 26 29
70 62 56 56 61 64 57 52 54 55 52 53 49 50 52 50 50 47 38 33 28 31 36 47 62 66 64 74 80 81 84 88 89 96 90 71 68 62 43 37 25 24 27
87 71 64 66 68 73 64 62 58 60 55 56 59 56 54 56 53 54 48 40 33 29 32 38 44 55 63 71 78 80 84 86 90 93 92 77 76 71 49 43 29 24 24
77 88 85 76 75 77 85 75 67 65 64 57 63 60 57 58 55 56 56 45 37 34 30 33 39 48 56 72 76 78 86 90 93 97 93 86 82 66 47 42 33 26 22
52 65 73 71 82 89 89 91 80 72 68 63 63 64 64 56 53 55 56 52 43 39 36 32 35 40 47 63 73 72 83 91 99 98 96 96 85 72 48 38 33 28 26
44 50 55 63 70 69 89 87 84 86 81 73 67 66 61 56 55 54 55 53 48 44 40 37 34 38 45 50 65 71 74 89 94 97 96 98 94 83 55 37 28 25 27
33 44 47 50 51 62 62 76 89 85 77 75 73 65 64 62 60 60 57 56 55 50 47 43 38 38 44 48 54 74 68 87 94 96 94 98 97 85 61 42 30 26 28
19 23 37 43 46 46 59 61 66 77 73 64 72 74 66 64 62 62 66 61 61 56 53 46 44 36 44 51 57 64 69 77 85 92 94 98 97 89 74 48 35 28 28
17 16 20 27 38 44 44 65 75 73 72 69 63 65 71 67 64 65 70 70 64 64 59 51 51 42 41 50 59 64 69 68 70 79 84 94 97 97 89 67 42 32 30
21 18 17 19 23 37 36 42 82 82 71 58 63 65 70 70 72 66 67 77 74 73 62 55 56 50 41 46 55 65 69 67 66 71 78 82 87 97 96 86 65 44 36
24 24 23 20 19 27 40 38 48 79 81 57 59 63 63 70 76 75 69 71 75 77 67 58 59 56 44 45 48 54 58 66 70 70 69 76 83 90 96 98 84 61 44
36 35 34 32 27 23 36 44 36 44 64 64 61 62 62 64 78 77 71 70 74 85 82 66 61 58 53 45 49 50 52 57 62 66 72 73 75 83 91 97 96 83 62
47 50 52 52 46 34 28 41 41 41 62 66 67 56 58 76 81 81 69 71 79 71 87 80 66 58 60 49 54 55 55 54 57 59 62 71 76 79 87 94 97 93 84
70 72 70 68 63 56 35 40 38 46 59 70 58 52 62 76 75 78 72 66 68 83 96 79 70 62 66 52 56 59 59 56 57 58 61 67 75 82 83 87 95 97 97
82 85 84 81 67 56 47 45 45 56 59 61 60 56 64 77 83 80 77 73 78 85 93 83 75 70 71 57 58 57 54 53 59 64 66 71 71 77 84 86 82 91 97
89 90 89 89 78 71 61 55 68 71 77 77 69 68 69 72 84 87 91 92 90 92 91 88 82 71 73 61 60 58 54 54 59 65 73 79 80 77 76 84 91 85 89
92 92 95 96 95 85 79 75 80 85 89 85 71 73 70 67 77 90 91 89 84 84 94 94 91 85 71 61 60 55 54 59 60 63 74 76 77 81 84 87 89 89 92
93 93 96 94 94 93 87 86 95 94 95 85 73 72 72 74 87 91 87 80 78 92 97 97 91 82 67 62 61 58 58 62 65 70 81 82 89 89 88 91 90 90 91
95 94 97 97 94 94 87 88 87 99 84 83 80 83 81 81 82 83 81 80 82 95 97 98 88 76 67 64 63 61 62 64 67 75 81 92 97 97 98 98 96 96 96
99 98 96 98 93 94 99 94 87 94 85 84 87 84 87 88 90 89 90 92 86 94 94 94 90 80 69 68 65 66 67 65 69 74 79 92 98 98 98 98 99 99 98
98 98 98 98 97 98 94 92 96 89 94 90 97 90 94 94 94 94 96 98 97 95 97 95 93 85 76 73 70 71 70 69 68 70 80 86 95 99 99 98 98 99 98
97 97 97 97 98 97 98 95 98 96 98 99 98 97 99 99 98 97 98 97 98 98 98 96 95 91 85 78 76 74 75 74 73 77 77 88 91 97 98 99 99 99 98